Regional Weather Roundup
Issued by NWS

Home | Current Version | Previous Version | Text Only | Print | Product List | Glossary Off
Versions: 1 2 3 4 5 6 7 8 9 10 11 12 13 14 15 16 17 18 19 20 21 22 23 24 25 26 27 28 29 30 31 32 33 34 35 36 37 38 39 40 41 42 43 44 45 46 47 48 49 50

000
ASUS43 KIND 280309
RWRIN

WEATHER ROUNDUP FOR INDIANA
NATIONAL WEATHER SERVICE INDIANAPOLIS IN
1100 PM EDT THU APR 27 2017

NOTE: "FAIR" INDICATES FEW OR NO CLOUDS BELOW 12,000 FEET WITH NO
SIGNIFICANT WEATHER AND/OR OBSTRUCTIONS TO VISIBILITY.

* - STATION DOES NOT REPORT WEATHER SUCH AS PRECIPITATION OR FOG.

+ - STATION NOT QUALITY CONTROLLED BY THE NATIONAL WEATHER SERVICE.
    USE DATA WITH CAUTION...ESPECIALLY DEWPOINT AND RELATIVE
    HUMIDITY OBSERVATIONS.

INZ001>003-010>013-019-020-280400-
NORTHWEST INDIANA

CITY           SKY/WX    TMP DP  RH WIND       PRES   REMARKS
GARY /AIRPORT/ CLOUDY    48  37  66 MISG      29.86R
KNOX *+        CLOUDY    46  25  42 SW9       29.85R
LA PORTE +     CLOUDY    47  40  78 W8        29.86R
MICHIGAN CITY+ CLOUDY    46  37  71 W10       29.85R
MONTICELLO +   CLOUDY    48  38  68 SW14      29.89R
RENSSELAER +   CLOUDY    48  41  76 SW10      29.89R
VALPARAISO     CLOUDY    49  41  74 SW17G24   29.87R

$$

LMZ046-743>745-280400-
SOUTHERN LAKE MICHIGAN

STATION/POSITION TIME  TEMP    WIND        PRES    WAVE
                       AIR SEA DIR/SP/G            HT
                 (UTC) (F)     (DEG/KT/KT) (MB)    (FT)
BURNS HARBOR     0240   48     250/ 14/ 17 1011.2R
MICHIGAN CITY    0240   47     240/ 22/ 24   N/A
5NW MICH CITY    0300   46 47                N/A     3

$$

INZ004-005-014>016-021>024-280400-
NORTH CENTRAL INDIANA

CITY           SKY/WX    TMP DP  RH WIND       PRES   REMARKS
GOSHEN         CLOUDY    48  38  68 SW13      29.83R
LOGANSPORT +   CLOUDY    45  41  87 SW8       29.89R
PERU/GRISSOM   CLOUDY    48  46  91 W9        29.87R
ROCHESTER +    CLOUDY    50  41  71 W12       29.87R
SOUTH BEND     CLOUDY    47  40  76 SW10      29.84R
WARSAW +       CLOUDY    46  37  71 W10       29.85R

$$

INZ006>009-017-018-025>027-280400-
NORTHEAST INDIANA

CITY           SKY/WX    TMP DP  RH WIND       PRES   REMARKS
ANGOLA *+      CLOUDY    48  43  81 W12       29.84R
AUBURN +       MOCLDY    50  41  71 SW7       29.85R
FORT WAYNE     MOCLDY    51  42  71 W9        29.86R
HUNTINGTON +   CLOUDY    48  43  81 W9        29.86R
KENDALLVILLE + CLOUDY    48  40  75 W14G23    29.85R

$$

INZ028-029-035-036-043>045-051>053-280400-
WEST CENTRAL INDIANA

CITY           SKY/WX    TMP DP  RH WIND       PRES   REMARKS
CRAWFORDSVL +  CLOUDY    47  45  93 W3        29.89R
GREENCASTLE +  CLOUDY    48  43  81 CALM      29.89R
LAFAYETTE      CLOUDY    48  43  82 W6        29.90R
TERRE HAUTE    CLOUDY    52  44  74 S3        29.89R

$$

INZ030>032-037>040-046>048-054>057-064-065-280400-
CENTRAL INDIANA

CITY           SKY/WX    TMP DP  RH WIND       PRES   REMARKS
CP ATTERBURY + CLEAR     46  43  87 CALM      29.90R
FRANKFORT +    CLOUDY    51  46  82 W7        29.90R
GREENWOOD *+   CLEAR     50  44  79 W5        29.89R
INDIANAPOLIS   MOCLDY    50  44  80 W7        29.89R
-EAGLE CREEK   PTCLDY    50  41  71 SW5       29.88R
KOKOMO +       CLOUDY    50  43  77 W12       29.89R
MARION +       PTCLDY    46  43  87 SW7       29.88R
MT COMFORT *+  CLEAR     46  43  87 W5        29.89R
SHELBYVILLE    CLEAR     51  42  71 SW6       29.88R
ZIONSVILLE +   CLOUDY    49  43  79 SW7       29.89R

$$

INZ033-034-041-042-049-050-058-059-280400-
EAST CENTRAL INDIANA

CITY           SKY/WX    TMP DP  RH WIND       PRES   REMARKS
MUNCIE         PTCLDY    50  44  80 W3        29.87R
RICHMOND +     CLEAR     46  43  87 SW7       29.88R

$$

INZ060-061-067>069-081>083-085>088-280400-
SOUTHWEST INDIANA

CITY           SKY/WX    TMP DP  RH WIND       PRES   REMARKS
EVANSVILLE     PTCLDY    50  46  86 CALM      29.90R
HUNTINGBURG *+ CLOUDY    50  48  93 CALM      29.90R
WASHINGTON +   MOCLDY    48  46  93 CALM      29.89R

$$

INZ062-063-066-070>080-084-089>092-280400-
SOUTH CENTRAL AND SOUTHEAST INDIANA

CITY           SKY/WX    TMP DP  RH WIND       PRES   REMARKS
BLOOMINGTON    CLEAR     45  41  86 CALM      29.89R
MADISON *+     CLEAR     50  46  87 CALM      29.91R
NORTH VERNON + CLEAR     48  46  93 CALM      29.90R FOG
SEYMOUR +      PTCLDY    48  45  87 CALM      29.89R

$$





USA.gov is the U.S. government's official web portal to all federal, state and local government web resources and services.